Martha's Vineyard, MA

12:53 AM EDT on October 18, 2017 (GMT -0400)
Martha's Vineyard

Weather History for KMVY - November, 2013

Change the Weather History Date:

Friday, November 8, 2013

  Actual Average Record
Temperature  
Mean Temperature 44 °F -  
Max Temperature 50 °F 54 °F 69 °F (2011)
Min Temperature 39 °F 39 °F 22 °F (1993)
Degree Days  
Heating Degree Days 20    
Moisture  
Dew Point 26 °F    
Average Humidity 49    
Maximum Humidity 58    
Minimum Humidity 40    
Precipitation  
Precipitation 0.00 in - - ()
Sea Level Pressure  
Sea Level Pressure 29.95 in    
Wind  
Wind Speed 14 mph (WNW)    
Max Wind Speed 20 mph    
Max Gust Speed 32 mph    
Visibility 10 miles    
Events      
Averages and records for this station are not official NWS values.
T = Trace of Precipitation, MM = Missing Value Source: NWS Daily Summary

Daily Weather History Graph

Daily Weather History Graph

Search for Another Location

Airport or City:

Trip Planner

Search our weather history database for the weather conditions in past years. The results will help you decide how hot, cold, wet, or windy it might be!

Date:

Astronomy

Nov. 08, 2013 Rise Set
Actual Time 6:22 AM EST 4:29 PM EST
Civil Twilight 5:53 AM EST 4:58 PM EST
Nautical Twilight 5:20 AM EST 5:31 PM EST
Astronomical Twilight 4:47 AM EST 6:03 PM EST
Moon 11:16 AM EST (11/8) 9:46 PM EST (11/8)
Length of Visible Light 11h 05m
Length of Day
10h 06m
Waxing Crescent, 33% of the Moon is Illuminated
Nov 8
Waxing Crescent
Nov 10
First Quarter
Nov 17
Full
Nov 25
Last Quarter
Dec 2
New

Hourly Weather History & Observations

Time (EST) Temp. Windchill Dew Point Humidity Pressure Visibility Wind Dir Wind Speed Gust Speed Precip Events Conditions
12:53 AM 45.0 °F 37.9 °F 30.9 °F 58% 29.83 in 10.0 mi NNW 16.1 mph 24.2 mph N/A   Mostly Cloudy
1:53 AM 44.1 °F 37.1 °F 28.0 °F 53% 29.84 in 10.0 mi NW 15.0 mph 25.3 mph N/A   Clear
2:53 AM 42.1 °F 36.6 °F 27.0 °F 55% 29.84 in 10.0 mi NW 9.2 mph - N/A   Clear
3:53 AM 42.1 °F 34.2 °F 25.0 °F 51% 29.86 in 10.0 mi NW 16.1 mph - N/A   Clear
4:53 AM 41.0 °F 34.3 °F 24.1 °F 51% 29.88 in 10.0 mi NW 11.5 mph - N/A   Clear
5:53 AM 39.9 °F 33.4 °F 21.9 °F 49% 29.91 in 10.0 mi NW 10.4 mph - N/A   Clear
6:53 AM 41.0 °F 35.2 °F 23.0 °F 49% 29.94 in 10.0 mi WNW 9.2 mph 17.3 mph N/A   Clear
7:53 AM 44.1 °F 38.6 °F 24.1 °F 45% 29.95 in 10.0 mi WNW 10.4 mph - N/A   Clear
8:53 AM 46.0 °F 41.0 °F 30.9 °F 56% 29.95 in 10.0 mi WNW 10.4 mph 18.4 mph N/A   Clear
9:53 AM 48.0 °F - 34.0 °F 58% 29.94 in 10.0 mi West 10.4 mph - N/A   Mostly Cloudy
10:53 AM 48.0 °F - 32.0 °F 54% 29.92 in 10.0 mi WNW 12.7 mph 23.0 mph N/A   Scattered Clouds
11:53 AM 50.0 °F - 32.0 °F 50% 29.90 in 10.0 mi WNW 13.8 mph 23.0 mph N/A   Partly Cloudy
12:53 PM 50.0 °F - 30.0 °F 46% 29.89 in 10.0 mi West 17.3 mph 23.0 mph N/A   Scattered Clouds
1:53 PM 50.0 °F - 28.9 °F 44% 29.91 in 10.0 mi West 12.7 mph 23.0 mph N/A   Partly Cloudy
2:53 PM 48.9 °F - 27.0 °F 43% 29.91 in 10.0 mi WNW 16.1 mph 25.3 mph N/A   Partly Cloudy
3:53 PM 48.0 °F - 26.1 °F 42% 29.93 in 10.0 mi WNW 18.4 mph 29.9 mph N/A   Mostly Cloudy
4:53 PM 46.0 °F 39.6 °F 25.0 °F 44% 29.96 in 10.0 mi WNW 15.0 mph 28.8 mph N/A   Clear
5:53 PM 46.0 °F 38.5 °F 24.1 °F 42% 29.99 in 10.0 mi WNW 19.6 mph 31.1 mph N/A   Mostly Cloudy
6:53 PM 44.1 °F 36.2 °F 21.0 °F 40% 30.02 in 10.0 mi NW 18.4 mph 32.2 mph N/A   Partly Cloudy
7:53 PM 43.0 °F 35.7 °F 21.0 °F 42% 30.04 in 10.0 mi WNW 15.0 mph 25.3 mph N/A   Scattered Clouds
8:53 PM 42.1 °F 33.9 °F 21.0 °F 43% 30.07 in 10.0 mi NW 17.3 mph 23.0 mph N/A   Clear
9:53 PM 41.0 °F 32.5 °F 21.0 °F 45% 30.09 in 10.0 mi NW 17.3 mph 25.3 mph N/A   Clear
10:53 PM 39.0 °F 33.4 °F 21.9 °F 50% 30.10 in 10.0 mi NW 8.1 mph - N/A   Clear
11:53 PM 39.0 °F 31.8 °F 24.1 °F 55% 30.11 in 10.0 mi NW 11.5 mph 20.7 mph N/A   Clear